Hourly Data Report for October 24, 2013

All times are specified in Local Standard Time (LST). Add 1 hour to adjust for Daylight Saving Time where and when it is observed.

KAMLOOPS A
BRITISH COLUMBIA

50°42'09.000" N
120°26'55.000" W
345.30 m
1163781
71887
YKA

Download Data

Hourly Data (October 2013)
Hourly Data Report for October 24, 2013
Temp Definition
°C
Dew Point Temp Definition
°C
Rel Hum Definition
%
Wind Dir Definition
10's deg

Wind Spd Definition
km/h
Visibility Definition
km
Stn Press Definition
kPa
Hmdx Definition


Wind Chill Definition


Weather Definition


TIME
00:00 Legend Double Dagger 6.8 5.0 88 12 10 16.1 98.04     LegendNANA
01:00 Legend Double Dagger 6.4 4.9 90 12 9 9.7 98.05     Fog
02:00 Legend Double Dagger 6.2 4.7 90 12 10 9.7 98.04     Fog
03:00 Legend Double Dagger 5.8 4.6 92 14 12 9.7 98.02     Fog
04:00 Legend Double Dagger 5.8 4.5 91 11 9 9.7 98.02     Fog
05:00 Legend Double Dagger 5.4 4.1 91 13 11 12.9 98.02     LegendNANA
06:00 Legend Double Dagger 5.5 4.0 90 14 12 12.9 98.01     LegendNANA
07:00 Legend Double Dagger 5.4 3.9 90 8 10 12.9 98.05     Drizzle
08:00 Legend Double Dagger 5.5 4.2 91 9 8 11.3 98.05     Drizzle
09:00 Legend Double Dagger 6.0 3.8 86 9 3 11.3 98.09     LegendNANA
10:00 Legend Double Dagger 6.4 3.9 84 17 4 12.9 98.11     Cloudy
11:00 Legend Double Dagger 7.0 4.3 83 8 1 24.1 98.11     LegendNANA
12:00 Legend Double Dagger 7.6 4.6 81 16 5 32.2 98.04     LegendNANA
13:00 Legend Double Dagger 8.1 4.5 78 6 8 64.4 97.96     Cloudy
14:00 Legend Double Dagger 8.0 4.6 79 5 6 40.2 97.91     LegendNANA
15:00 Legend Double Dagger 7.8 4.6 80 32 2 40.2 97.91     LegendNANA
16:00 Legend Double Dagger 7.9 4.9 81 30 5 40.2 97.90     Cloudy
17:00 Legend Double Dagger 7.9 4.9 81 3 4 40.2 97.93     LegendNANA
18:00 Legend Double Dagger 7.7 4.8 82 33 7 40.2 97.96     LegendNANA
19:00 Legend Double Dagger 7.8 4.9 82 4 4 40.2 97.99     Cloudy
20:00 Legend Double Dagger 7.4 4.7 83 35 6 40.2 98.05     LegendNANA
21:00 Legend Double Dagger 7.2 4.7 84 2 12 32.2 98.10     LegendNANA
22:00 Legend Double Dagger 7.2 4.9 85 28 3 32.2 98.15     Cloudy
23:00 Legend Double Dagger 7.0 4.5 84 34 4 32.2 98.19     LegendNANA

Notes on Data Quality.

Legend

  • E = Estimated
  • M = Missing
  • NA = Not Available
  • ‡ = Partner data that is not subject to review by the National Climate Archives
Date modified: